Location: Azul
(36.7830°S, 59.8500°W)
Time: 10:55:45
(UTC-03:00)

BEESAT 3 - Pass Details

Date: 24 October 2021
Orbit: 477 x 511 km, 64.9° (Epoch: 28 November)

Event Time Altitude Azimuth Distance (km) Brightness Sun altitude
Rises 05:04:52 0° 214° (SW) 2,571 ? -11.8°
Reaches altitude 10° 05:07:03 10° 217° (SW) 1,680 ? -11.4°
Maximum altitude 05:10:44 62° 297° (WNW) 551 ? -10.7°
Drops below altitude 10° 05:14:23 10° 18° (NNE) 1,655 ? -10.0°
Sets 05:16:31 0° 21° (NNE) 2,527 ? -9.6°
